FW6979 Weather Reports


time (UTC)temp
C
wind
direction
speed
KPH
gust
KPH
rain 1hr
cm
rain 24hr
cm
rain mn
cm
humidity
%
barometer
mb
20260509031553 13 0 0.0 1.6 0.00 0.03 0.03 88 1015.6
20260509030057 13 0 0.0 0.0 0.00 0.03 0.03 88 1015.4
20260509024540 13 0 0.0 0.0 0.00 0.03 0.03 88 1015.5
20260509023038 13 0 0.0 0.0 0.00 0.03 0.03 88 1015.5
20260509021540 14 0 0.0 0.0 0.00 0.03 0.03 88 1015.2
20260509020040 14 0 0.0 1.6 0.00 0.03 0.03 87 1015.3
20260509014539 14 0 0.0 0.0 0.00 0.05 0.03 87 1015.1
20260509013037 15 0 0.0 0.0 0.00 0.05 0.03 87 1015.1
20260509011535 15 0 0.0 0.0 0.00 0.05 0.03 86 1015.0
20260509010033 15 0 0.0 0.0 0.00 0.05 0.03 86 1015.0
20260509004547 15 0 0.0 0.0 0.00 0.08 0.03 84 1014.8
20260509003049 15 0 0.0 0.0 0.00 0.08 0.03 83 1014.9
20260509001538 16 0 0.0 0.0 0.00 0.08 0.03 81 1014.9
20260509000037 16 0 0.0 0.0 0.00 0.08 0.03 80 1014.7
20260508234532 16 0 0.0 0.0 0.00 0.10 0.03 79 1014.7
20260508233033 17 0 0.0 0.0 0.00 0.10 0.03 78 1014.7
20260508231538 17 0 0.0 0.0 0.00 0.10 0.03 77 1014.7
20260508230038 18 0 0.0 1.6 0.00 0.10 0.03 73 1015.0
20260508224549 18 0 0.0 1.6 0.00 0.13 0.03 72 1014.8
20260508223047 18 0 0.0 1.6 0.00 0.13 0.03 69 1014.6
20260508221535 18 0 0.0 1.6 0.00 0.13 0.03 67 1014.8
20260508220048 18 0 0.0 1.6 0.00 0.13 0.03 66 1014.7
20260508214538 19 291 0.0 1.6 0.00 0.15 0.03 66 1014.8
20260508213037 19 0 0.0 1.6 0.00 0.15 0.03 64 1014.7
20260508211536 19 0 0.0 3.2 0.00 0.15 0.03 60 1014.8
20260508210037 20 0 0.0 1.6 0.00 0.15 0.03 59 1014.8
20260508204534 20 0 0.0 4.8 0.00 0.23 0.03 59 1014.9
20260508203042 20 0 0.0 4.8 0.00 0.23 0.03 58 1015.0
20260508201537 20 0 0.0 4.8 0.00 0.23 0.03 56 1015.3
20260508200037 20 0 0.0 4.8 0.00 0.23 0.03 54 1015.3
20260508194539 20 307 1.6 4.8 0.00 0.28 0.03 53 1015.5
20260508193033 20 0 0.0 4.8 0.00 0.28 0.03 52 1015.8
20260508191542 21 299 0.0 3.2 0.00 0.28 0.03 50 1016.0
20260508190037 21 338 1.6 6.4 0.00 0.28 0.03 52 1016.2
20260508184538 21 242 0.0 8.0 0.00 0.38 0.03 54 1016.3
20260508183035 21 0 0.0 3.2 0.00 0.38 0.03 52 1016.6
20260508181539 21 0 0.0 6.4 0.00 0.38 0.03 53 1016.8
20260508180039 20 289 1.6 4.8 0.00 0.38 0.03 53 1017.0
20260508174536 20 0 0.0 4.8 0.00 0.48 0.03 56 1017.3
20260508173037 20 0 1.6 6.4 0.00 0.48 0.03 49 1017.2
20260508171534 20 190 0.0 11.3 0.00 0.48 0.03 55 1017.3
20260508170035 18 0 0.0 4.8 0.00 0.48 0.03 59 1017.7
20260508164535 20 262 3.2 12.9 0.00 0.58 0.03 53 1018.0
20260508163038 18 0 0.0 4.8 0.00 0.58 0.03 58 1018.2
20260508161537 17 96 0.0 4.8 0.00 0.58 0.03 60 1018.4
20260508160039 18 295 1.6 6.4 0.00 0.58 0.03 55 1018.5
20260508154534 18 284 1.6 4.8 0.00 0.71 0.03 58 1018.4
20260508153040 18 0 1.6 4.8 0.00 0.71 0.03 59 1019.0
20260508151538 18 105 1.6 4.8 0.00 0.71 0.03 59 1019.1
20260508150053 17 139 0.0 4.8 0.00 0.71 0.03 59 1019.0
20260508144533 16 0 0.0 4.8 0.00 0.81 0.03 62 1018.8
20260508143043 16 0 0.0 6.4 0.00 0.81 0.03 64 1018.9
20260508141534 16 0 0.0 3.2 0.00 0.81 0.03 67 1018.9
20260508140041 15 277 0.0 4.8 0.00 0.81 0.03 70 1019.0
20260508134539 15 0 0.0 1.6 0.00 0.94 0.03 72 1019.2
20260508133033 14 0 0.0 0.0 0.00 0.94 0.03 74 1019.0
20260508131535 13 0 0.0 0.0 0.00 0.94 0.03 73 1019.1
20260508130034 13 0 0.0 0.0 0.00 0.94 0.03 78 1018.9
20260508124537 11 0 0.0 0.0 0.00 1.07 0.03 90 1018.7
20260508123037 10 0 0.0 0.0 0.00 1.07 0.03 92 1018.2
20260508121537 9 0 0.0 0.0 0.00 1.07 0.03 91 1018.0
20260508120033 8 0 0.0 0.0 0.00 1.07 0.03 91 1017.8
20260508114534 8 0 0.0 0.0 0.00 1.22 0.03 90 1017.5
20260508113040 8 0 0.0 0.0 0.00 1.22 0.03 90 1017.3
20260508111537 8 0 0.0 0.0 0.00 1.22 0.03 89 1017.0
20260508110036 8 0 0.0 0.0 0.00 1.22 0.03 89 1016.6
20260508104537 8 0 0.0 0.0 0.00 1.37 0.03 89 1016.4
20260508103033 8 0 0.0 0.0 0.00 1.37 0.03 89 1016.1
20260508101543 8 0 0.0 0.0 0.00 1.37 0.03 89 1016.0
20260508100038 8 0 0.0 0.0 0.00 1.37 0.03 89 1015.8
20260508094536 8 0 0.0 0.0 0.00 1.55 0.03 89 1015.7
20260508093038 8 0 0.0 0.0 0.00 1.55 0.03 89 1015.4
20260508091536 9 0 0.0 0.0 0.00 1.55 0.03 89 1015.3
20260508090041 9 0 0.0 0.0 0.00 1.55 0.03 89 1015.1
20260508084537 9 0 0.0 0.0 0.00 1.73 0.03 89 1015.0
20260508083045 8 0 0.0 0.0 0.00 1.73 0.03 89 1015.0
20260508081536 9 0 0.0 0.0 0.00 1.73 0.03 89 1015.1
20260508080053 9 0 0.0 0.0 0.00 1.73 0.03 88 1015.2
20260508074539 9 0 0.0 0.0 0.00 1.91 0.03 88 1015.2
20260508073040 9 0 0.0 0.0 0.00 1.91 0.03 88 1015.4
20260508071537 9 0 0.0 0.0 0.00 1.91 0.03 88 1015.3
20260508070037 9 0 0.0 0.0 0.00 1.91 0.03 88 1015.3
20260508064544 9 0 0.0 0.0 0.00 2.08 0.03 87 1015.1
20260508063042 10 0 0.0 0.0 0.00 2.08 0.03 86 1015.2
20260508061542 10 0 0.0 0.0 0.00 2.08 0.03 86 1015.2
20260508060039 10 0 0.0 0.0 0.00 2.08 0.03 85 1015.3
20260508054544 10 0 0.0 0.0 0.00 2.31 0.03 85 1015.2
20260508053040 11 0 0.0 0.0 0.00 2.31 0.03 84 1015.2
20260508051539 11 0 0.0 0.0 0.03 2.31 0.03 83 1015.3
20260508050050 11 0 0.0 0.0 0.03 2.31 0.03 83 1015.2
20260508044535 12 0 0.0 0.0 0.03 2.46 0.03 82 1014.9
20260508043037 12 0 0.0 0.0 0.03 2.46 0.03 82 1014.8
20260508041536 12 0 0.0 0.0 0.00 2.44 0.00 82 1014.9
20260508040049 12 0 0.0 0.0 0.00 2.44 0.00 82 1014.6
20260508034542 13 0 0.0 0.0 0.00 2.64 2.44 82 1014.5
20260508033037 13 0 0.0 4.8 0.00 2.64 2.44 80 1014.5